CW8809 Weather Reports


Display with metric or nautical units.
time (UTC)temp
F
wind
direction
speed
MPH
gust
MPH
rain 1hr
in
rain 24hr
in
rain mn
in
humidity
%
barometer
mb
20260510104728 52 135 0.0 0.0 0.00 0.00 0.00 81 1031.2
20260510103725 52 22 0.0 0.0 0.00 0.00 0.00 80 1031.1
20260510102723 52 67 0.0 0.0 0.00 0.00 0.00 80 1031.0
20260510101720 53 90 0.0 0.0 0.00 0.00 0.00 80 1030.6
20260510100718 53 45 0.0 0.0 0.00 0.00 0.00 79 1030.5
20260510095716 53 90 0.0 0.0 0.00 0.00 0.00 79 1030.4
20260510094714 54 45 0.0 0.0 0.00 0.00 0.00 78 1030.3
20260510093712 54 67 0.0 0.0 0.00 0.00 0.00 78 1030.3
20260510092709 54 22 0.0 0.0 0.00 0.00 0.00 77 1030.0
20260510091707 55 67 0.0 0.0 0.00 0.00 0.00 77 1030.0
20260510090706 55 45 0.0 0.0 0.00 0.00 0.00 76 1029.7
20260510085632 55 67 0.0 0.0 0.00 0.00 0.00 74 1029.4
20260510084630 55 90 0.0 0.0 0.00 0.00 0.00 72 1029.4
20260510083627 55 67 0.0 0.0 0.00 0.00 0.00 71 1029.4
20260510082625 55 67 0.0 0.0 0.00 0.00 0.00 71 1029.1
20260510081622 54 0 0.0 0.0 0.00 0.00 0.00 70 1028.8
20260510080620 55 315 0.0 0.0 0.00 0.00 0.00 70 1028.8
20260510075618 55 315 0.0 0.0 0.00 0.00 0.00 69 1028.5
20260510074615 56 315 0.0 0.0 0.00 0.00 0.00 67 1028.6
20260510073614 57 315 0.0 0.0 0.00 0.00 0.00 65 1028.3
20260510072613 59 315 0.0 0.0 0.00 0.00 0.00 64 1028.4
20260510071611 60 315 0.0 0.0 0.00 0.00 0.00 62 1028.2
20260510070609 60 315 0.0 0.0 0.00 0.00 0.00 60 1028.2
20260510065607 61 315 0.0 0.0 0.00 0.00 0.00 58 1028.3
20260510064606 62 0 0.0 0.0 0.00 0.00 0.00 58 1028.3
20260510063604 63 337 0.0 0.0 0.00 0.00 0.00 57 1028.1
20260510062459 63 0 0.0 0.0 0.00 0.00 0.00 55 1028.1
20260510061458 63 22 0.0 0.0 0.00 0.00 0.00 55 1028.1
20260510060456 64 315 0.0 0.0 0.00 0.00 0.00 55 1028.2
20260510055453 64 0 0.0 0.0 0.00 0.00 0.00 53 1027.8
20260510054451 65 0 0.0 0.0 0.00 0.00 0.00 53 1027.9
20260510053449 65 0 0.0 0.0 0.00 0.00 0.00 52 1027.8
20260510052447 65 0 0.0 0.0 0.00 0.00 0.00 52 1027.8
20260510051413 66 22 0.0 0.0 0.00 0.00 0.00 51 1027.8
20260510050340 66 315 0.0 0.0 0.00 0.00 0.00 50 1027.9
20260510045338 66 0 0.0 0.0 0.00 0.00 0.00 52 1027.6
20260510044305 66 67 0.0 0.0 0.00 0.00 0.00 53 1027.9
20260510043303 66 0 0.0 0.0 0.00 0.00 0.00 52 1028.0
20260510042305 66 315 0.0 0.0 0.00 0.00 0.00 51 1027.6
20260510041259 66 45 0.0 0.0 0.00 0.00 0.00 53 1028.0
20260510040256 66 90 0.0 0.0 0.00 0.00 0.00 52 1028.0
20260510035254 66 0 0.0 0.0 0.00 0.00 0.00 52 1028.0
20260510034252 66 112 0.0 0.0 0.00 0.00 0.00 54 1028.0
20260510033250 65 67 0.0 0.0 0.00 0.00 0.00 55 1027.9
20260510032247 65 180 0.0 0.0 0.00 0.00 0.00 55 1027.9
20260510031245 64 45 0.0 0.0 0.00 0.00 0.00 55 1027.9
20260510030242 64 270 0.0 0.0 0.00 0.00 0.00 56 1028.2
20260510025240 63 157 0.0 0.0 0.00 0.00 0.00 57 1028.2
20260510024238 63 112 0.0 0.0 0.00 0.00 0.00 56 1028.5
20260510023236 62 247 0.0 0.0 0.00 0.00 0.00 58 1028.5
20260510022235 62 22 0.0 0.0 0.00 0.00 0.00 58 1028.8
20260510021233 61 0 0.0 0.0 0.00 0.00 0.00 62 1028.8
20260510020159 60 0 0.0 0.0 0.00 0.00 0.00 62 1029.0
20260510015158 60 247 0.0 0.0 0.00 0.00 0.00 62 1029.0
20260510014156 59 90 0.0 0.0 0.00 0.00 0.00 65 1029.0
20260510013155 59 22 0.0 0.0 0.00 0.00 0.00 64 1029.3
20260510012152 59 315 0.0 0.0 0.00 0.00 0.00 66 1029.3
20260510011151 58 292 0.0 0.0 0.00 0.00 0.00 67 1029.2
20260510010149 57 22 0.0 0.0 0.00 0.00 0.00 69 1029.2
20260510005147 55 157 0.0 0.0 0.00 0.00 0.00 73 1029.0
20260510004145 54 22 0.0 0.0 0.00 0.00 0.00 73 1029.0
20260510003144 53 225 0.0 0.0 0.00 0.00 0.00 75 1029.0
20260510002141 52 0 0.0 0.0 0.00 0.00 0.00 75 1028.9
20260510001139 52 67 0.0 0.0 0.00 0.00 0.00 77 1028.9
20260510000136 51 90 0.0 0.0 0.00 0.00 0.00 79 1028.8
20260509235103 50 22 0.0 0.0 0.00 0.00 0.00 79 1028.8
20260509234101 49 135 0.0 0.0 0.00 0.00 0.00 81 1028.7
20260509233058 49 67 0.0 0.0 0.00 0.00 0.00 82 1028.7
20260509232057 48 135 0.0 0.0 0.00 0.00 0.00 82 1028.7
20260509231055 48 112 0.0 0.0 0.00 0.00 0.00 81 1028.7
20260509230053 48 157 0.0 0.0 0.00 0.00 0.00 82 1028.7
20260509225052 48 157 0.0 0.0 0.00 0.00 0.00 83 1028.7
20260509224018 46 67 0.0 0.0 0.00 0.00 0.00 84 1028.6
20260509223016 44 67 0.0 0.0 0.00 0.00 0.00 84 1028.4
20260509222014 44 45 0.0 0.0 0.00 0.00 0.00 83 1028.4
20260509221012 42 22 0.0 0.0 0.00 0.00 0.00 81 1028.3
20260509220009 39 0 0.0 0.0 0.00 0.00 0.00 82 1027.7
20260509214935 38 0 0.0 0.0 0.00 0.00 0.00 84 1027.7
20260509213933 38 0 0.0 0.0 0.00 0.00 0.00 84 1027.7
20260509212931 38 0 0.0 0.0 0.00 0.00 0.00 84 1027.4
20260509211929 38 0 0.0 0.0 0.00 0.00 0.00 83 1027.4
20260509210927 38 0 0.0 0.0 0.00 0.00 0.00 83 1027.1
20260509205926 38 0 0.0 0.0 0.00 0.00 0.00 83 1027.2
20260509204923 38 0 0.0 0.0 0.00 0.00 0.00 83 1026.9
20260509203921 39 0 0.0 0.0 0.00 0.00 0.00 83 1027.0
20260509202920 39 0 0.0 0.0 0.00 0.00 0.00 82 1027.0
20260509201918 39 0 0.0 0.0 0.00 0.00 0.00 81 1026.8
20260509200916 40 0 0.0 0.0 0.00 0.00 0.00 81 1026.8
20260509195914 40 0 0.0 0.0 0.00 0.00 0.00 81 1026.8
20260509194912 40 0 0.0 0.0 0.00 0.00 0.00 81 1026.8
20260509193910 40 0 0.0 0.0 0.00 0.00 0.00 81 1026.6
20260509192908 40 0 0.0 0.0 0.00 0.00 0.00 81 1026.7
20260509191906 40 0 0.0 0.0 0.00 0.00 0.00 81 1026.7
20260509190904 40 0 0.0 0.0 0.00 0.00 0.00 81 1026.4
20260509185902 40 0 0.0 0.0 0.00 0.00 0.00 81 1026.1
20260509184859 40 0 0.0 0.0 0.00 0.00 0.00 81 1026.2
20260509183857 41 0 0.0 0.0 0.00 0.00 0.00 80 1026.3
20260509182854 41 337 0.0 0.0 0.00 0.00 0.00 79 1026.3
20260509181852 41 337 0.0 0.0 0.00 0.00 0.00 79 1026.3
20260509180850 41 337 0.0 0.0 0.00 0.00 0.00 79 1026.3
20260509175848 41 337 0.0 0.0 0.00 0.00 0.00 78 1026.0
20260509174814 40 337 0.0 0.0 0.00 0.00 0.00 79 1026.0
20260509173812 39 337 0.0 0.0 0.00 0.00 0.00 81 1025.9
20260509172811 38 337 0.0 0.0 0.00 0.00 0.00 83 1025.9
20260509171809 38 337 0.0 0.0 0.00 0.00 0.00 83 1026.3
20260509170734 39 337 0.0 0.0 0.00 0.00 0.00 83 1026.3
20260509165733 39 337 0.0 0.0 0.00 0.00 0.00 82 1026.0
20260509164731 40 337 0.0 0.0 0.00 0.00 0.00 82 1026.1
20260509163729 40 337 0.0 0.0 0.00 0.00 0.00 81 1026.1
20260509162727 40 337 0.0 0.0 0.00 0.00 0.00 81 1026.1
20260509161725 41 22 0.0 0.0 0.00 0.00 0.00 81 1026.1
20260509160722 40 22 0.0 0.0 0.00 0.00 0.00 82 1026.1
20260509155720 40 22 0.0 0.0 0.00 0.00 0.00 82 1026.1
20260509154718 40 22 0.0 0.0 0.00 0.00 0.00 82 1026.1
20260509153716 40 22 0.0 0.0 0.00 0.00 0.00 82 1026.4
20260509152714 40 22 0.0 0.0 0.00 0.00 0.00 83 1026.4
20260509151711 40 22 0.0 0.0 0.00 0.00 0.00 83 1026.3
20260509150637 41 22 0.0 0.0 0.00 0.00 0.00 83 1026.3
20260509145635 41 22 0.0 0.0 0.00 0.00 0.00 83 1026.4
20260509144633 42 22 0.0 0.0 0.00 0.00 0.00 83 1026.4
20260509143559 42 22 0.0 0.0 0.00 0.00 0.00 82 1026.4
20260509142556 42 22 0.0 0.0 0.00 0.00 0.00 82 1026.3
20260509141554 42 22 0.0 0.0 0.00 0.00 0.00 82 1026.3
20260509140551 42 45 0.0 0.0 0.00 0.00 0.00 82 1025.9
20260509135447 42 0 0.0 0.0 0.00 0.00 0.00 82 1026.2
20260509134444 42 22 0.0 0.0 0.00 0.00 0.00 83 1026.1
20260509133408 42 45 0.0 0.0 0.00 0.00 0.00 83 1026.1
20260509132406 42 0 0.0 0.0 0.00 0.00 0.00 84 1026.1
20260509131301 43 292 0.0 0.0 0.00 0.00 0.00 84 1026.0
20260509130259 43 292 0.0 0.0 0.00 0.00 0.00 84 1025.9
20260509125256 42 292 0.0 0.0 0.00 0.00 0.00 84 1025.8
20260509124254 43 292 0.0 0.0 0.00 0.00 0.00 84 1025.8
20260509123148 43 292 0.0 0.0 0.00 0.00 0.00 84 1025.8
20260509122115 44 292 0.0 0.0 0.00 0.00 0.00 84 1025.8
20260509121041 44 292 0.0 0.0 0.00 0.00 0.00 84 1025.8
20260509120040 44 292 0.0 0.0 0.00 0.00 0.00 84 1025.9
20260509115037 44 292 0.0 0.0 0.00 0.00 0.00 84 1025.8
20260509114036 45 292 0.0 0.0 0.00 0.00 0.00 84 1025.8
20260509113034 45 292 0.0 0.0 0.00 0.00 0.00 83 1025.8
20260509112033 45 292 0.0 0.0 0.00 0.00 0.00 83 1025.8
20260509111032 46 292 0.0 0.0 0.00 0.00 0.00 84 1025.7
20260509110030 46 292 0.0 0.0 0.00 0.00 0.00 84 1025.4